Blacksburg, VA

5:01 PM EDT on July 22, 2017 (GMT -0400)
Virginia Tech

Weather History for KBCB - November, 2013

Change the Weather History Date:

Saturday, November 23, 2013

  Actual Average Record
Temperature  
Mean Temperature 39 °F 41 °F  
Max Temperature 51 °F 52 °F 68 °F (2003)
Min Temperature 26 °F 29 °F 10 °F (1971)
Degree Days  
Heating Degree Days 26 24  
Month to date heating degree days 501 471  
Since 1 July heating degree days 973 998  
Cooling Degree Days 0 0  
Month to date cooling degree days 0 0  
Year to date cooling degree days 568 573  
Moisture  
Dew Point 33 °F    
Average Humidity 73    
Maximum Humidity 100    
Minimum Humidity 45    
Precipitation  
Precipitation 0.00 in 0.10 in 1.17 in (1992)
Month to date precipitation 0.89 2.18  
Year to date precipitation 44.22 37.25  
Snow  
Snow 0.00 in - - ()
Month to date snowfall T  
Since 1 July snowfall T  
Since 1 September snowfall T  
Snow Depth 0.00 in    
Sea Level Pressure  
Sea Level Pressure 30.17 in    
Wind  
Wind Speed 12 mph (WNW)    
Max Wind Speed 24 mph    
Max Gust Speed 35 mph    
Visibility 10 miles    
Events      
T = Trace of Precipitation, MM = Missing Value Source: NWS Daily Summary

Daily Weather History Graph

Daily Weather History Graph

Search for Another Location

Airport or City:

Trip Planner

Search our weather history database for the weather conditions in past years. The results will help you decide how hot, cold, wet, or windy it might be!

Date:

Astronomy

Nov. 23, 2013 Rise Set
Actual Time 7:09 AM EST 5:06 PM EST
Civil Twilight 6:40 AM EST 5:35 PM EST
Nautical Twilight 6:09 AM EST 6:06 PM EST
Astronomical Twilight 5:37 AM EST 6:38 PM EST
Moon 10:30 PM EST (11/23) 11:27 AM EST (11/23)
Length of Visible Light 10h 54m
Length of Day
9h 57m
Waning Gibbous, 70% of the Moon is Illuminated
Nov 23
Waning Gibbous
Nov 25
Last Quarter
Dec 2
New
Dec 9
First Quarter
Dec 17
Full

Hourly Weather History & Observations

Time (EST) Temp. Windchill Dew Point Humidity Pressure Visibility Wind Dir Wind Speed Gust Speed Precip Events Conditions
12:15 AM 53.6 °F - 51.8 °F 94% 30.16 in 10.0 mi WNW 6.9 mph - N/A   Overcast
12:35 AM 51.8 °F - 50.0 °F 94% 30.16 in 10.0 mi NW 9.2 mph - N/A   Overcast
12:55 AM 51.8 °F - 48.2 °F 88% 30.16 in 10.0 mi WNW 8.1 mph 16.1 mph N/A   Overcast
1:15 AM 51.8 °F - 48.2 °F 88% 30.16 in 10.0 mi WNW 10.4 mph - N/A   Overcast
1:35 AM 51.8 °F - 48.2 °F 88% 30.16 in 10.0 mi WNW 9.2 mph - N/A   Overcast
1:55 AM 50.0 °F - 48.2 °F 94% 30.17 in 10.0 mi WNW 8.1 mph 17.3 mph N/A   Overcast
2:15 AM 48.2 °F - 48.2 °F 100% 30.16 in 10.0 mi WNW 9.2 mph - N/A   Overcast
2:35 AM 48.2 °F - 46.4 °F 93% 30.16 in 10.0 mi WNW 5.8 mph - N/A   Overcast
2:55 AM 48.2 °F - 46.4 °F 93% 30.16 in 10.0 mi WNW 8.1 mph - N/A   Overcast
3:15 AM 48.2 °F - 46.4 °F 93% 30.15 in 10.0 mi WNW 9.2 mph 17.3 mph N/A   Mostly Cloudy
3:35 AM 46.4 °F 41.9 °F 46.4 °F 100% 30.15 in 10.0 mi WNW 9.2 mph 17.3 mph N/A   Overcast
3:55 AM 46.4 °F 41.5 °F 46.4 °F 100% 30.15 in 10.0 mi WNW 10.4 mph - N/A   Overcast
4:15 AM 46.4 °F 41.1 °F 44.6 °F 93% 30.15 in 10.0 mi WNW 11.5 mph 17.3 mph N/A   Overcast
4:35 AM 46.4 °F 42.4 °F 44.6 °F 93% 30.15 in 10.0 mi WNW 8.1 mph - N/A   Overcast
4:55 AM 46.4 °F 42.4 °F 44.6 °F 93% 30.16 in 10.0 mi WNW 8.1 mph - N/A   Overcast
5:15 AM 46.4 °F 42.9 °F 44.6 °F 93% 30.16 in 10.0 mi WNW 6.9 mph - N/A   Overcast
5:35 AM 44.6 °F 39.2 °F 42.8 °F 93% 30.17 in 10.0 mi NNW 10.4 mph - N/A   Overcast
5:55 AM 44.6 °F 39.7 °F 42.8 °F 93% 30.18 in 10.0 mi NW 9.2 mph - N/A   Overcast
6:15 AM 44.6 °F 40.7 °F 42.8 °F 93% 30.18 in 10.0 mi West 6.9 mph - N/A   Overcast
6:35 AM 44.6 °F 42.2 °F 42.8 °F 93% 30.18 in 10.0 mi NW 4.6 mph - N/A   Overcast
6:55 AM 42.8 °F 39.3 °F 42.8 °F 100% 30.19 in 10.0 mi West 5.8 mph - N/A   Overcast
7:15 AM 42.8 °F 39.3 °F 41.0 °F 93% 30.19 in 10.0 mi WNW 5.8 mph - N/A   Overcast
7:35 AM 42.8 °F 39.3 °F 41.0 °F 93% 30.19 in 10.0 mi West 5.8 mph - N/A   Overcast
7:55 AM 42.8 °F 36.6 °F 41.0 °F 93% 30.20 in 10.0 mi WNW 11.5 mph - N/A   Overcast
8:15 AM 42.8 °F 36.6 °F 39.2 °F 87% 30.21 in 10.0 mi WNW 11.5 mph 17.3 mph N/A   Overcast
8:35 AM 42.8 °F 37.0 °F 39.2 °F 87% 30.22 in 10.0 mi WNW 10.4 mph - N/A   Overcast
8:55 AM 42.8 °F 35.8 °F 37.4 °F 81% 30.23 in 10.0 mi NW 13.8 mph 18.4 mph N/A   Overcast
9:15 AM 42.8 °F 35.8 °F 37.4 °F 81% 30.23 in 10.0 mi WNW 13.8 mph - N/A   Overcast
9:35 AM 44.6 °F 38.1 °F 37.4 °F 76% 30.22 in 10.0 mi WNW 13.8 mph 21.9 mph N/A   Mostly Cloudy
9:55 AM 42.8 °F 36.6 °F 35.6 °F 76% 30.23 in 10.0 mi WNW 11.5 mph 21.9 mph N/A   Scattered Clouds
10:15 AM 42.8 °F 36.6 °F 35.6 °F 76% 30.23 in 10.0 mi WNW 11.5 mph 19.6 mph N/A   Mostly Cloudy
10:35 AM 42.8 °F 35.1 °F 33.8 °F 70% 30.23 in 10.0 mi WNW 16.1 mph 21.9 mph N/A   Scattered Clouds
10:55 AM 42.8 °F 35.8 °F 35.6 °F 76% 30.21 in 10.0 mi WNW 13.8 mph 18.4 mph N/A   Scattered Clouds
11:15 AM 42.8 °F 37.0 °F 33.8 °F 70% 30.20 in 10.0 mi WNW 10.4 mph 17.3 mph N/A   Scattered Clouds
11:35 AM 42.8 °F 35.8 °F 33.8 °F 70% 30.20 in 10.0 mi WNW 13.8 mph 18.4 mph N/A   Scattered Clouds
11:55 AM 42.8 °F 37.0 °F 33.8 °F 70% 30.19 in 10.0 mi WNW 10.4 mph 16.1 mph N/A   Clear
12:15 PM 44.6 °F 38.8 °F 33.8 °F 66% 30.18 in 10.0 mi NW 11.5 mph 17.3 mph N/A   Clear
12:35 PM 44.6 °F 39.7 °F 32.0 °F 61% 30.16 in 10.0 mi WNW 9.2 mph 19.6 mph N/A   Clear
12:55 PM 46.4 °F 41.9 °F 33.8 °F 62% 30.15 in 10.0 mi WNW 9.2 mph 18.4 mph N/A   Clear
1:15 PM 46.4 °F 40.1 °F 30.2 °F 53% 30.15 in 10.0 mi WNW 15.0 mph 19.6 mph N/A   Clear
1:35 PM 46.4 °F 40.7 °F 30.2 °F 53% 30.15 in 10.0 mi WNW 12.7 mph 17.3 mph N/A   Clear
1:55 PM 46.4 °F 41.9 °F 30.2 °F 53% 30.13 in 10.0 mi WNW 9.2 mph 18.4 mph N/A   Clear
2:15 PM 46.4 °F 41.5 °F 30.2 °F 53% 30.13 in 10.0 mi WNW 10.4 mph - N/A   Clear
2:35 PM 46.4 °F 42.9 °F 30.2 °F 53% 30.12 in 10.0 mi WNW 6.9 mph 16.1 mph N/A   Clear
2:55 PM 46.4 °F 41.5 °F 28.4 °F 50% 30.12 in 10.0 mi WNW 10.4 mph 16.1 mph N/A   Clear
3:15 PM 46.4 °F 40.4 °F 26.6 °F 46% 30.12 in 10.0 mi WNW 13.8 mph 20.7 mph N/A   Clear
3:35 PM 44.6 °F 38.1 °F 23.0 °F 43% 30.13 in 10.0 mi WNW 13.8 mph 20.7 mph N/A   Clear
3:55 PM 44.6 °F 39.2 °F 24.8 °F 46% 30.13 in 10.0 mi West 10.4 mph 18.4 mph N/A   Clear
4:15 PM 42.8 °F 37.0 °F 23.0 °F 46% 30.13 in 10.0 mi West 10.4 mph 21.9 mph N/A   Clear
4:35 PM 42.8 °F 36.6 °F 23.0 °F 46% 30.13 in 10.0 mi West 11.5 mph 18.4 mph N/A   Clear
4:55 PM 39.2 °F 32.0 °F 24.8 °F 56% 30.13 in 10.0 mi West 11.5 mph 18.4 mph N/A   Clear
5:15 PM 39.2 °F 33.0 °F 26.6 °F 61% 30.14 in 10.0 mi West 9.2 mph 18.4 mph N/A   Clear
5:35 PM 39.2 °F 32.0 °F 26.6 °F 61% 30.15 in 10.0 mi WNW 11.5 mph 18.4 mph N/A   Clear
5:55 PM 37.4 °F 29.8 °F 26.6 °F 65% 30.15 in 10.0 mi WNW 11.5 mph 18.4 mph N/A   Clear
6:15 PM 37.4 °F 30.8 °F 26.6 °F 65% 30.15 in 10.0 mi WNW 9.2 mph - N/A   Clear
6:35 PM 37.4 °F 28.5 °F 24.8 °F 60% 30.16 in 10.0 mi WNW 15.0 mph 24.2 mph N/A   Clear
6:55 PM 35.6 °F 25.9 °F 24.8 °F 65% 30.16 in 10.0 mi WNW 16.1 mph 28.8 mph N/A   Scattered Clouds
7:15 PM 35.6 °F 25.5 °F 23.0 °F 60% 30.16 in 10.0 mi WNW 17.3 mph 24.2 mph N/A   Clear
7:35 PM 35.6 °F 25.5 °F 23.0 °F 60% 30.16 in 10.0 mi WNW 17.3 mph 31.1 mph N/A   Scattered Clouds
7:55 PM 35.6 °F 24.5 °F 23.0 °F 60% 30.16 in 10.0 mi NW 20.7 mph 28.8 mph N/A   Mostly Cloudy
8:15 PM 35.6 °F 25.2 °F 21.2 °F 56% 30.16 in 10.0 mi WNW 18.4 mph 27.6 mph N/A   Overcast
8:35 PM 35.6 °F 25.2 °F 19.4 °F 52% 30.16 in 10.0 mi WNW 18.4 mph 32.2 mph N/A   Mostly Cloudy
8:55 PM 33.8 °F 24.3 °F 19.4 °F 56% 30.16 in 10.0 mi WNW 13.8 mph 20.7 mph N/A   Mostly Cloudy
9:15 PM 33.8 °F 23.2 °F 21.2 °F 60% 30.17 in 10.0 mi NW 17.3 mph 21.9 mph N/A   Overcast
9:35 PM 33.8 °F 23.9 °F 21.2 °F 60% 30.18 in 10.0 mi NNW 15.0 mph 27.6 mph N/A   Overcast
9:55 PM 30.2 °F 17.4 °F 19.4 °F 64% 30.19 in 10.0 mi NNW 20.7 mph 27.6 mph N/A   Mostly Cloudy
10:15 PM 30.2 °F 18.9 °F 19.4 °F 64% 30.19 in 10.0 mi NW 16.1 mph 32.2 mph N/A   Mostly Cloudy
10:35 PM 30.2 °F 20.8 °F 19.4 °F 64% 30.20 in 10.0 mi NW 11.5 mph 25.3 mph N/A   Overcast
10:55 PM 30.2 °F 16.5 °F 17.6 °F 60% 30.22 in 10.0 mi NW 24.2 mph 33.4 mph N/A   Overcast
11:15 PM 28.4 °F 16.2 °F 15.8 °F 59% 30.22 in 10.0 mi WNW 17.3 mph 34.5 mph N/A   Overcast
11:35 PM 28.4 °F 15.1 °F 15.8 °F 59% 30.23 in 10.0 mi NW 20.7 mph 29.9 mph N/A   Overcast
11:55 PM 28.4 °F 14.7 °F 15.8 °F 59% 30.23 in 10.0 mi NW 21.9 mph 29.9 mph N/A   Mostly Cloudy